EST,Max TemperatureF,Mean TemperatureF,Min TemperatureF,Max Dew PointF,MeanDew PointF,Min DewpointF,Max Humidity, Mean Humidity, Min Humidity, Max Sea Level PressureIn, Mean Sea Level PressureIn, Min Sea Level PressureIn, Max VisibilityMiles, Mean VisibilityMiles, Min VisibilityMiles, Max Wind SpeedMPH, Mean Wind SpeedMPH, Max Gust SpeedMPH,PrecipitationIn, CloudCover, Events, WindDirDegrees
2013-1-1,28,20,11,22,16,5,92,80,68,30.23,30.15,30.07,10,9,6,10,5,14,0.00,5,,320
2013-1-2,21,12,2,6,4,-1,100,75,49,30.30,30.24,30.21,10,10,10,9,2,12,0.00,0,,215
2013-1-3,30,22,13,23,16,5,78,70,61,30.34,30.25,30.19,10,10,8,17,8,22,0.00,6,,259
2013-1-4,30,21,12,21,15,8,84,73,62,30.36,30.32,30.30,10,10,10,15,9,22,0.00,0,,246
2013-1-5,34,26,17,28,22,15,92,79,66,30.33,30.24,30.10,10,9,6,12,5,16,T,4,,224
2013-1-6,35,29,22,29,24,18,88,80,72,30.39,30.13,29.99,10,9,6,28,9,32,0.00,8,,266
2013-1-7,34,24,14,23,19,11,92,77,61,30.44,30.34,30.21,10,8,3,17,5,24,0.00,0,,203
2013-1-8,41,32,22,26,24,20,88,71,54,30.26,30.21,30.18,10,9,6,15,4,18,0.00,0,,195
2013-1-9,49,38,26,34,30,23,85,71,56,30.53,30.33,30.14,10,10,10,15,7,21,T,2,Rain,259
2013-1-10,45,34,23,43,30,21,88,72,55,30.53,30.30,30.00,10,8,3,16,9,22,0.46,4,Rain,106
2013-1-11,56,51,45,52,48,43,100,86,71,29.96,29.84,29.75,10,9,3,18,11,28,0.43,5,Rain,197
2013-1-12,59,49,38,50,45,36,93,83,72,29.97,29.89,29.79,10,9,5,17,8,24,0.53,3,Rain,261
2013-1-13,39,28,17,36,27,13,100,89,77,30.28,29.99,29.78,10,6,2,30,11,41,0.64,8,Rain-Snow,324
2013-1-14,21,17,12,16,12,8,92,80,68,30.50,30.43,30.29,10,10,7,16,4,21,T,2,,335
2013-1-15,28,21,14,20,16,11,88,79,69,30.45,30.34,30.15,10,9,7,15,6,17,0.00,1,,54
2013-1-16,36,27,18,25,21,18,100,76,52,30.12,30.05,29.96,10,8,3,16,6,22,0.00,2,,245
2013-1-17,36,29,21,27,21,13,92,70,47,30.45,30.26,30.09,10,10,7,17,6,23,0.00,1,,329
2013-1-18,39,29,18,24,19,14,84,64,44,30.49,30.34,30.10,10,10,10,20,8,28,0.00,0,,216
2013-1-19,51,44,36,34,29,25,73,61,49,30.11,29.97,29.85,10,10,10,23,13,31,0.00,0,,236
2013-1-20,41,30,18,25,9,6,67,59,50,30.31,30.23,29.99,10,10,10,30,14,39,0.00,4,,308
2013-1-21,19,13,6,10,3,-7,84,65,46,30.34,30.22,30.17,10,7,1,24,14,33,T,6,Snow,296
2013-1-22,15,9,2,-1,-4,-6,79,60,40,30.45,30.39,30.33,10,10,10,17,10,22,0.00,2,,294
2013-1-23,22,16,9,11,4,-1,73,59,45,30.39,30.28,30.15,10,10,9,21,4,28,T,8,Snow,264
2013-1-24,23,16,8,10,4,-1,80,59,38,30.64,30.48,30.26,10,10,5,20,10,29,T,1,Snow,50
2013-1-25,27,23,18,18,14,4,92,69,45,30.40,30.16,30.04,10,8,2,15,6,18,0.04,6,Snow,209
2013-1-26,30,21,11,16,13,9,88,68,47,30.45,30.35,30.17,10,10,9,12,4,14,0.00,2,,330
2013-1-27,37,28,19,36,23,14,92,77,61,30.43,30.28,30.05,10,8,4,16,9,22,0.09,5,Rain,144
2013-1-28,51,44,37,52,48,37,100,96,92,30.04,29.97,29.94,9,4,0,17,7,25,0.04,8,Fog-Rain,216
2013-1-29,65,58,51,57,55,53,100,92,84,29.92,29.70,29.31,10,7,1,20,12,30,0.45,8,Rain-Thunderstorm,201
2013-1-30,65,45,24,52,41,17,100,89,77,29.64,29.39,29.27,10,8,1,31,16,40,0.99,8,Rain-Snow-Thunderstorm,261
2013-1-31,25,16,7,18,12,-1,77,69,61,30.16,29.90,29.69,10,7,1,31,20,38,T,8,Snow,286